Regional Weather Roundup
Issued by NWS Sioux Falls, SD

Home | Current Version | Previous Version | Graphics & Text | Print | Product List | Glossary Off
Versions: 1 2 3 4 5 6 7 8 9 10 11 12 13 14 15 16 17 18 19 20 21 22 23 24 25 26 27 28 29 30 31 32 33 34 35 36 37 38 39 40 41 42 43 44 45 46 47 48 49 50

000
ASUS43 KFSD 100402
RWRFSD

WEATHER ROUNDUP FOR SE SOUTH DAKOTA/SW MINNESOTA/NW IOWA
NATIONAL WEATHER SERVICE SIOUX FALLS SD
1000 PM CST TUE FEB 09 2016

NOTE: "FAIR" INDICATES FEW OR NO CLOUDS BELOW 12,000 FEET WITH NO
SIGNIFICANT WEATHER AND OR OBSTRUCTIONS TO VISIBILITY.


SDZ038>040-050-052>070-100500-
SOUTHEAST SOUTH DAKOTA

CITY           SKY/WX    TMP DP  RH WIND       PRES   REMARKS
BROOKINGS      CLOUDY    19  11  70 E3        30.12F
CHAMBERLAIN    NOT AVBL
HURON          CLOUDY    26  17  68 S8        30.12F WCI  18
MADISON        FAIR      18  18 100 E5        30.12S WCI  11
MITCHELL       CLOUDY    28  17  63 S8        30.13F WCI  20
SIOUX FALLS    CLOUDY    21  12  68 SE3       30.14F
WINNER         CLOUDY    34  25  69 W5        30.08F WCI  30
YANKTON        CLOUDY    23  16  74 S7        30.15F WCI  15
$$

MNZ071-072-080-081-089-090-097-098-100500-
SOUTHWEST MINNESOTA

CITY           SKY/WX    TMP DP  RH WIND       PRES   REMARKS
FAIRMONT       CLEAR     10   3  72 NW10      30.13S WCI  -3
JACKSON        CLOUDY    18   9  68 NW13      30.13S WCI   4
LUVERNE        CLOUDY    21  16  79 CALM      30.15F
MARSHALL       CLOUDY    15   9  76 N12       30.18S WCI   2
MONTEVIDEO     CLOUDY    12   7  79 N10       30.20S WCI  -1
PIPESTONE      CLOUDY    21   7  53 CALM      30.13S
REDWOOD FALLS  CLOUDY    14   6  70 NW9       30.18S WCI   2
TRACY          CLOUDY    17  11  77 NW10      30.16F WCI   4
WINDOM         PTCLDY    16  10  79 NW15      30.13S WCI   1
WORTHINGTON    CLOUDY    18   9  68 NW9       30.14F WCI   6
$$

IAZ001>003-012>014-020>022-031-032-NEZ013-014-SDZ071-100500-
NORTHWEST IOWA

CITY           SKY/WX    TMP DP  RH WIND       PRES   REMARKS
ESTHERVILLE    CLOUDY    15  10  80 NW15      30.13F WCI   0
SIOUX CITY     PTCLDY    21  15  78 S3        30.20F
SPENCER        CLOUDY    19  10  68 NW10      30.15F WCI   7
STORM LAKE     CLOUDY    19  14  79 NW12      30.16S WCI   7
$$

ABBREVIATIONS USED IN REMARKS
   TC - TEMPERATURE IN CELSIUS
  WCI - WIND CHILL INDEX
   HX - HEAT INDEX
  VSB - VISIBILITY




USA.gov is the U.S. government's official web portal to all federal, state and local government web resources and services.